FENGYUN 1C DEB, 31439

Orbit data source: Space-Track

FENGYUN 1C DEB, 31439 is space debris in SSO originally from a launch on Mon, 10 May 1999 UTC launched from the Taiyaun Space Center, China (TSC). Fengyun 1C debris stems from the Chinese weather satellite Fengyun-1C, which was intentionally destroyed by a Chinese anti-satellite missile in 2007. This event dramatically increased the amount of space debris, with thousands of trackable fragments posing hazards to satellites and human spaceflight. The Fengyun 1C debris cloud has become a focal point in discussions about space sustainability and the need for international regulations to prevent the creation of new debris.

Loading next visibility...
Identifier
31439, 1999-025BUB
Orbit
SSO
Country
Flag of CNCN / PRC
Related business
Manufacturer
Unknown
Mission
Spacecraft
Bus & Motor
Unknown
Mass
Unknown
Launch date (UTC)
1999-05-10 (27 years ago)
Launch vehicle
Unknown
Launch site
Taiyaun Space Center, China (TSC)
Object type
Payload
Rocket body
Debris
Shape & HBR
Unknown shape, 0.1 m
Radar Cross Section
Small (<0.1 m²)

Expand to show TLE details & history
Last TLE update: 1 week ago

TLE from 1 week ago
0 FENGYUN 1C DEB
1 31439U 99025BUB 26117.79253084  .00000653  00000-0  46894-3 0  9998
2 31439  98.9167 124.4978 0138161 147.1811  30.7439 13.95900633651300
Epoch: 2026-04-27T19:01Z
TLE epoch observation values (Epoch: 2026-04-27T19:01:14.664Z)
Latitude
1.12965°
Longitude
163.58591°
Altitude
824.595 km
Speed
7.485 km/s
True Right ascension
20h 18m 41s
True Declination
1° 07' 23"
Sunlit
Object was in daylight at epoch
Visualization orbit readout
Latitude
Unknown
Longitude
Unknown
Altitude
Unknown
Speed
Unknown
Apparent Right ascension
Unknown
Apparent Declination
Unknown
Sunlit
N/A
Visualization observer readout
Local Sidereal Time
19:58:41
Azimuth
Unknown
Elevation
Unknown
Doppler factor
Unknown
Orbital elements
Apogee altitude
1,005.853 km
Perigee altitude
804.598 km
Semi-major axis
7,283.362 km
Eccentricity
0.01382
Inclination
98.9167°
RAAN
124.4978°
Arg. of periapsis
147.1811°
True anomaly
31.5654°
Mean anomaly
30.7439°
Eccentric anomaly
31.15342°
Mean motion
3.49177 °/min
Orbital period
103.1 mins
BSTAR
0.00046894
Loading maneuver chart data...
Computing Atmospheric mass density...
Loading historical data...
Loading historical data...
Loading historical data...
Loading historical data...
Loading historical data...
Loading historical data...
Loading historical data...

Documentation

Showing up to 5 results
|